TimeEDT,TemperatureF,Dew PointF,Humidity,Sea Level PressureIn,VisibilityMPH,Wind Direction,Wind SpeedMPH,Gust SpeedMPH,PrecipitationIn,Events,Conditions,WindDirDegrees,DateUTC
12:14 AM,19.4,12.2,74,30.06,4.0,NW,10.4,23.0,N/A,Snow,Light Snow,310,2013-03-17 04:14:00
12:35 AM,19.4,12.2,74,30.06,10.0,WNW,11.5,-,N/A,Snow,Light Snow,300,2013-03-17 04:35:00
12:54 AM,19.4,14.0,80,30.07,1.5,NW,11.5,16.1,N/A,Snow,Light Snow,320,2013-03-17 04:54:00
1:14 AM,17.6,14.0,86,30.08,4.0,NW,16.1,24.2,N/A,Snow,Light Snow,310,2013-03-17 05:14:00
1:35 AM,17.6,12.2,79,30.09,10.0,NW,11.5,18.4,N/A,Snow,Light Snow,320,2013-03-17 05:35:00
1:54 AM,17.6,12.2,79,30.10,5.0,NW,9.2,-,N/A,Snow,Light Snow,320,2013-03-17 05:54:00
2:15 AM,17.6,12.2,79,30.11,2.5,NNW,11.5,17.3,N/A,Snow,Light Snow,330,2013-03-17 06:15:00
2:35 AM,15.8,12.2,86,30.12,4.0,NNW,9.2,-,N/A,Snow,Light Snow,330,2013-03-17 06:35:00
2:54 AM,15.8,12.2,86,30.14,1.5,NNW,10.4,-,N/A,Snow,Light Snow,330,2013-03-17 06:54:00
3:15 AM,15.8,10.4,79,30.16,10.0,NNW,6.9,-,N/A,Snow,Light Snow,340,2013-03-17 07:15:00
3:34 AM,15.8,10.4,79,30.17,2.5,NNW,5.8,-,N/A,Snow,Light Snow,330,2013-03-17 07:34:00
3:55 AM,15.8,10.4,79,30.18,3.0,NNW,12.7,23.0,N/A,Snow,Light Snow,330,2013-03-17 07:55:00
4:14 AM,14.0,10.4,86,30.18,10.0,NNW,5.8,-,N/A,Snow,Light Snow,330,2013-03-17 08:14:00
4:35 AM,15.8,10.4,79,30.19,5.0,NW,4.6,-,N/A,Snow,Light Snow,320,2013-03-17 08:35:00
4:54 AM,12.2,8.6,85,30.19,10.0,NNW,9.2,-,N/A,Snow,Light Snow,330,2013-03-17 08:54:00
5:14 AM,12.2,6.8,79,30.20,10.0,NNW,6.9,-,N/A,Snow,Light Snow,330,2013-03-17 09:14:00
5:35 AM,12.2,6.8,79,30.21,10.0,Calm,Calm,-,N/A,Snow,Light Snow,0,2013-03-17 09:35:00
5:54 AM,12.2,6.8,79,30.21,10.0,NW,3.5,-,N/A,Snow,Light Snow,320,2013-03-17 09:54:00
6:15 AM,10.4,6.8,85,30.22,10.0,Calm,Calm,-,N/A,Snow,Light Snow,0,2013-03-17 10:15:00
6:34 AM,8.6,5.0,85,30.22,10.0,WNW,3.5,-,N/A,,Scattered Clouds,290,2013-03-17 10:34:00
6:55 AM,6.8,3.2,85,30.23,10.0,WNW,3.5,-,N/A,,Scattered Clouds,290,2013-03-17 10:55:00
7:14 AM,6.8,3.2,85,30.24,10.0,Calm,Calm,-,N/A,,Clear,0,2013-03-17 11:14:00
7:34 AM,3.2,-0.4,85,30.24,10.0,Calm,Calm,-,N/A,,Scattered Clouds,0,2013-03-17 11:34:00
7:55 AM,1.4,-2.2,85,30.25,10.0,Calm,Calm,-,N/A,,Scattered Clouds,0,2013-03-17 11:55:00
8:14 AM,3.2,-0.4,85,30.26,10.0,WNW,3.5,-,N/A,,Clear,300,2013-03-17 12:14:00
8:35 AM,1.4,-2.2,85,30.26,10.0,Calm,Calm,-,N/A,,Clear,0,2013-03-17 12:35:00
8:54 AM,1.4,-2.2,85,30.26,10.0,Calm,Calm,-,N/A,,Scattered Clouds,0,2013-03-17 12:54:00
9:15 AM,3.2,-0.4,85,30.26,10.0,Calm,Calm,-,N/A,,Scattered Clouds,0,2013-03-17 13:15:00
9:35 AM,10.4,6.8,85,30.27,10.0,Calm,Calm,-,N/A,,Clear,0,2013-03-17 13:35:00
9:54 AM,12.2,8.6,85,30.27,10.0,NNE,4.6,-,N/A,,Clear,20,2013-03-17 13:54:00
10:15 AM,12.2,6.8,79,30.27,10.0,North,4.6,-,N/A,,Scattered Clouds,10,2013-03-17 14:15:00
10:34 AM,15.8,6.8,68,30.28,10.0,North,5.8,-,N/A,,Scattered Clouds,10,2013-03-17 14:34:00
10:54 AM,15.8,5.0,62,30.29,10.0,NNE,4.6,-,N/A,,Mostly Cloudy,30,2013-03-17 14:54:00
11:15 AM,15.8,6.8,68,30.29,10.0,ENE,3.5,-,N/A,,Overcast,60,2013-03-17 15:15:00
11:34 AM,15.8,6.8,68,30.30,10.0,North,5.8,-,N/A,,Overcast,10,2013-03-17 15:34:00
11:55 AM,17.6,5.0,58,30.31,10.0,NE,4.6,-,N/A,,Overcast,40,2013-03-17 15:55:00
12:14 PM,17.6,5.0,58,30.31,10.0,North,5.8,-,N/A,,Overcast,10,2013-03-17 16:14:00
12:34 PM,17.6,6.8,63,30.31,10.0,ENE,5.8,-,N/A,,Overcast,70,2013-03-17 16:34:00
12:55 PM,17.6,5.0,58,30.31,10.0,Calm,Calm,-,N/A,,Overcast,0,2013-03-17 16:55:00
1:14 PM,17.6,5.0,58,30.31,10.0,ESE,3.5,-,N/A,,Overcast,110,2013-03-17 17:14:00
1:35 PM,17.6,6.8,63,30.31,10.0,SSE,6.9,-,N/A,Snow,Light Snow,150,2013-03-17 17:35:00
1:55 PM,17.6,6.8,63,30.32,10.0,South,6.9,-,N/A,,Overcast,190,2013-03-17 17:55:00
2:14 PM,17.6,6.8,63,30.31,10.0,SSE,6.9,-,N/A,,Overcast,150,2013-03-17 18:14:00
2:35 PM,19.4,6.8,58,30.30,10.0,South,8.1,-,N/A,,Overcast,180,2013-03-17 18:35:00
2:54 PM,19.4,6.8,58,30.30,10.0,South,6.9,-,N/A,,Overcast,180,2013-03-17 18:54:00
3:15 PM,19.4,5.0,54,30.30,10.0,SSW,3.5,-,N/A,,Overcast,210,2013-03-17 19:15:00
3:35 PM,19.4,5.0,54,30.28,10.0,Calm,Calm,-,N/A,,Mostly Cloudy,0,2013-03-17 19:35:00
3:54 PM,19.4,6.8,58,30.27,10.0,SSE,6.9,-,N/A,,Mostly Cloudy,160,2013-03-17 19:54:00
4:15 PM,19.4,6.8,58,30.27,10.0,SE,6.9,-,N/A,,Scattered Clouds,130,2013-03-17 20:15:00
4:34 PM,19.4,6.8,58,30.27,10.0,ESE,5.8,-,N/A,,Scattered Clouds,120,2013-03-17 20:34:00
4:54 PM,19.4,6.8,58,30.27,10.0,SSE,6.9,-,N/A,,Scattered Clouds,160,2013-03-17 20:54:00
5:15 PM,19.4,6.8,58,30.27,10.0,South,3.5,-,N/A,,Mostly Cloudy,190,2013-03-17 21:15:00
5:34 PM,19.4,6.8,58,30.26,10.0,SSE,9.2,-,N/A,,Scattered Clouds,160,2013-03-17 21:34:00
5:55 PM,19.4,6.8,58,30.26,10.0,South,6.9,-,N/A,,Clear,170,2013-03-17 21:55:00
6:14 PM,17.6,6.8,63,30.24,10.0,SSE,5.8,-,N/A,,Clear,160,2013-03-17 22:14:00
6:34 PM,17.6,8.6,68,30.24,10.0,SSE,5.8,-,N/A,,Clear,160,2013-03-17 22:34:00
6:55 PM,17.6,8.6,68,30.25,10.0,SE,4.6,-,N/A,,Clear,140,2013-03-17 22:55:00
7:14 PM,17.6,8.6,68,30.23,10.0,SE,5.8,-,N/A,,Clear,140,2013-03-17 23:14:00
7:35 PM,17.6,8.6,68,30.22,10.0,ESE,4.6,-,N/A,,Clear,120,2013-03-17 23:35:00
7:54 PM,17.6,8.6,68,30.22,10.0,ESE,3.5,-,N/A,,Clear,110,2013-03-17 23:54:00
8:14 PM,17.6,8.6,68,30.22,10.0,Calm,Calm,-,N/A,,Clear,0,2013-03-18 00:14:00
8:35 PM,15.8,6.8,68,30.22,10.0,Calm,Calm,-,N/A,,Clear,0,2013-03-18 00:35:00
8:54 PM,14.0,6.8,73,30.22,10.0,Calm,Calm,-,N/A,,Clear,0,2013-03-18 00:54:00
9:15 PM,10.4,5.0,79,30.21,10.0,ENE,3.5,-,N/A,,Clear,70,2013-03-18 01:15:00
9:35 PM,12.2,5.0,73,30.21,10.0,ENE,5.8,-,N/A,,Clear,70,2013-03-18 01:35:00
9:54 PM,14.0,5.0,67,30.21,10.0,ENE,6.9,-,N/A,,Clear,70,2013-03-18 01:54:00
10:15 PM,14.0,5.0,67,30.20,10.0,East,5.8,-,N/A,,Clear,80,2013-03-18 02:15:00
10:34 PM,14.0,6.8,73,30.19,10.0,East,5.8,-,N/A,,Clear,80,2013-03-18 02:34:00
10:54 PM,12.2,6.8,79,30.19,10.0,ENE,6.9,-,N/A,,Clear,70,2013-03-18 02:54:00
11:15 PM,14.0,6.8,73,30.18,10.0,East,4.6,-,N/A,,Clear,80,2013-03-18 03:15:00
11:34 PM,15.8,8.6,73,30.18,10.0,East,8.1,-,N/A,,Clear,90,2013-03-18 03:34:00
11:55 PM,17.6,10.4,73,30.17,10.0,East,6.9,-,N/A,,Clear,90,2013-03-18 03:55:00